sat.trackr.live / text

‹ back to catalog

KUIPER-00231

NORAD 68580 · 2026-072H

PAYLOAD ACTIVE UNKNOWN

§ Identity

Operator
Country
US
Launch date
2026-04-04
Launch site
AFETR
Launch vehicle
Mass (kg)
RCS (m²)

External: N2YO · Heavens-Above · Gunter

§ Orbital elements

Epoch: 2026-09-20T04:01:19.077024Z

Period
97.30 min
Inclination
51.8982°
Eccentricity
0.0002046
Mean motion
14.79930319 rev/d
Perigee alt
628.1 km
Apogee alt
631.0 km
Semi-major
7,007.7 km
B*
2.7151e-4
RAAN
108.2209°
Arg perigee
114.8871°
Mean anomaly
245.2304°
Rev number
2,556

§ Raw data

KUIPER-002311 68580U 26072H   26263.16758191  .00001849  00000+0  27151-3 0  99912 68580  51.8982 108.2209 0002046 114.8871 245.2304 14.79930319 25560

JSON: /api/v1/satellites/68580 · /tle

For live sub-satellite position, see the globe view (requires WebGL).

§ Visibility from observer

Set your observer location to see the next 7 days of passes ≥ 10°. The values pass through the URL so the page stays shareable.

No JS? Fill the form by hand. The geolocation button needs JavaScript.